User: anonymous
Location: Vallejo Observatory
(38.1221°N, 122.2109°W)
Time: 03:26:37
(UTC-07:00)
Language:

MOS 1 Rocket - Orbit

View from above orbital plane
View from above orbital plane
View from above satellite
View from above satellite

Ground track
Ground track

The orbit data is extracted from the following two-line orbital elements,

1 17528U 87018B   14112.80653053  .00000530  00000-0  12818-3 0  3496
2 17528 097.4681 188.3732 0152674 306.1108 192.4552 14.49921289432978
Epoch (UTC): 22 April 2014 19:21:24
Eccentricity: 0.0152674
inclination: 97.4681°
perigee height: 617 km
apogee height: 834 km
right ascension of ascending node: 188.3732°
argument of perigee: 306.1108°
revolutions per day: 14.49921289
mean anomaly at epoch: 192.4552°
orbit number at epoch: 43297

The dashed part of the orbit path shows where the satellite is in the earth's shadow,  

DLR